GOMX-4B

Last updated on Dec. 9, 2021, 12:03 a.m. UTC

1 43196U 18015E   21342.33632330  .00001119  00000+0  47144-4 0  9998
2 43196  97.5082 115.6088 0018354  14.0586 346.1159 15.25361075214012
UTC
Height (km)
Latitude
Longitude
Inclination
Orbital Period
UTC large
Height (km)
Speed (km/s)
/
Latitude / Longitude
Inclination (degrees)
Orbital Period (minutes)
Azimuth
Elevation
Range (km)
Doppler Factor
iOS Compass Heading
iOS Angle